Time,TemperatureF,DewpointF,PressureIn,WindDirection,WindDirectionDegrees,WindSpeedMPH,WindSpeedGustMPH,Humidity,HourlyPrecipIn,Conditions,Clouds,dailyrainin,SoftwareType,DateUTC
2013-01-22 00:12:00,28.0,26.0,-100.00,NNW,334,0.0,2.0,91,-99.99,,,-99.99,,2013-01-22 07:12:00,
2013-01-22 00:22:00,28.0,26.0,-100.00,NNW,334,0.0,2.0,91,-99.99,,,-99.99,,2013-01-22 07:22:00,
2013-01-22 01:12:00,27.0,26.0,-100.00,NW,318,2.0,2.0,94,-99.99,,,-99.99,,2013-01-22 08:12:00,
2013-01-22 01:22:00,27.0,26.0,-100.00,NW,318,2.0,2.0,94,-99.99,,,-99.99,,2013-01-22 08:22:00,
2013-01-22 02:12:00,26.0,25.0,-100.00,NW,322,2.0,2.0,94,-99.99,,,-99.99,,2013-01-22 09:12:00,
2013-01-22 02:30:00,25.0,24.0,-100.00,WNW,300,0.0,2.0,97,-99.99,,,-99.99,,2013-01-22 09:30:00,
2013-01-22 05:12:00,23.0,22.0,-100.00,NNE,29,0.0,0.0,97,-99.99,,,-99.99,,2013-01-22 12:12:00,
2013-01-22 05:22:00,23.0,22.0,-100.00,NNE,29,0.0,0.0,97,-99.99,,,-99.99,,2013-01-22 12:22:00,
2013-01-22 06:13:00,23.0,23.0,-100.00,NNE,31,0.0,2.0,100,-99.99,,,-99.99,,2013-01-22 13:13:00,
2013-01-22 06:23:00,23.0,23.0,-100.00,NNE,31,0.0,2.0,100,-99.99,,,-99.99,,2013-01-22 13:23:00,
2013-01-22 06:30:00,22.0,21.0,-100.00,NNW,337,0.0,2.0,96,-99.99,,,-99.99,,2013-01-22 13:30:00,
2013-01-22 07:12:00,22.0,21.0,-100.00,NNW,337,0.0,2.0,96,-99.99,,,-99.99,,2013-01-22 14:12:00,
2013-01-22 07:23:00,22.0,21.0,-100.00,NNW,337,0.0,2.0,96,-99.99,,,-99.99,,2013-01-22 14:23:00,
2013-01-22 07:30:00,21.0,21.0,-100.00,WSW,243,0.0,0.0,99,-99.99,,,-99.99,,2013-01-22 14:30:00,
2013-01-22 08:12:00,21.0,21.0,-100.00,WSW,243,0.0,0.0,99,-99.99,,,-99.99,,2013-01-22 15:12:00,
2013-01-22 08:23:00,21.0,21.0,-100.00,WSW,243,0.0,0.0,99,-99.99,,,-99.99,,2013-01-22 15:23:00,
2013-01-22 09:13:00,22.0,22.0,-100.00,NNE,33,0.0,0.0,98,-99.99,,,-99.99,,2013-01-22 16:13:00,
2013-01-22 09:23:00,22.0,22.0,-100.00,NNE,33,0.0,0.0,98,-99.99,,,-99.99,,2013-01-22 16:23:00,
2013-01-22 10:30:00,22.0,21.0,-100.00,NW,324,0.0,2.0,95,-99.99,,,-99.99,,2013-01-22 17:30:00,
2013-01-22 11:12:00,22.0,21.0,-100.00,NW,324,0.0,2.0,95,-99.99,,,-99.99,,2013-01-22 18:12:00,
2013-01-22 11:23:00,22.0,21.0,-100.00,NW,324,0.0,2.0,95,-99.99,,,-99.99,,2013-01-22 18:23:00,
2013-01-22 11:30:00,23.0,22.0,-100.00,East,88,0.0,2.0,95,-99.99,,,-99.99,,2013-01-22 18:30:00,
2013-01-22 12:13:00,23.0,22.0,-100.00,East,88,0.0,2.0,95,-99.99,,,-99.99,,2013-01-22 19:13:00,
2013-01-22 12:23:00,23.0,22.0,-100.00,East,88,0.0,2.0,95,-99.99,,,-99.99,,2013-01-22 19:23:00,
2013-01-22 12:30:00,23.0,22.0,-100.00,NE,50,0.0,0.0,95,-99.99,,,-99.99,,2013-01-22 19:30:00,
2013-01-22 13:12:00,23.0,22.0,-100.00,NE,50,0.0,0.0,95,-99.99,,,-99.99,,2013-01-22 20:12:00,
2013-01-22 13:23:00,23.0,22.0,-100.00,NE,50,0.0,0.0,95,-99.99,,,-99.99,,2013-01-22 20:23:00,
2013-01-22 14:13:00,25.0,24.0,-100.00,NE,35,0.0,0.0,94,-99.99,,,-99.99,,2013-01-22 21:13:00,
2013-01-22 14:30:00,27.0,24.0,-100.00,NW,326,0.0,2.0,90,-99.99,,,-99.99,,2013-01-22 21:30:00,
2013-01-22 15:12:00,27.0,24.0,-100.00,NW,326,0.0,2.0,90,-99.99,,,-99.99,,2013-01-22 22:12:00,
2013-01-22 15:22:00,27.0,24.0,-100.00,NW,326,0.0,2.0,90,-99.99,,,-99.99,,2013-01-22 22:22:00,
2013-01-22 16:30:00,26.0,24.0,-100.00,WNW,303,0.0,0.0,93,-99.99,,,-99.99,,2013-01-22 23:30:00,
2013-01-22 17:12:00,26.0,24.0,-100.00,WNW,303,0.0,0.0,93,-99.99,,,-99.99,,2013-01-23 00:12:00,
2013-01-22 17:22:00,26.0,24.0,-100.00,WNW,303,0.0,0.0,93,-99.99,,,-99.99,,2013-01-23 00:22:00,
2013-01-22 17:30:00,25.0,24.0,-100.00,West,260,0.0,2.0,95,-99.99,,,-99.99,,2013-01-23 00:30:00,
2013-01-22 18:13:00,25.0,24.0,-100.00,West,260,0.0,2.0,95,-99.99,,,-99.99,,2013-01-23 01:13:00,
2013-01-22 18:22:00,25.0,24.0,-100.00,West,260,0.0,2.0,95,-99.99,,,-99.99,,2013-01-23 01:22:00,
2013-01-22 18:30:00,25.0,24.0,-100.00,West,280,0.0,0.0,95,-99.99,,,-99.99,,2013-01-23 01:30:00,
2013-01-22 19:12:00,25.0,24.0,-100.00,West,280,0.0,0.0,95,-99.99,,,-99.99,,2013-01-23 02:12:00,
2013-01-22 19:22:00,25.0,24.0,-100.00,West,280,0.0,0.0,95,-99.99,,,-99.99,,2013-01-23 02:22:00,
2013-01-22 19:30:00,25.0,24.0,-100.00,North,0,0.0,0.0,97,-99.99,,,-99.99,,2013-01-23 02:30:00,
2013-01-22 20:12:00,25.0,24.0,-100.00,North,0,0.0,0.0,97,-99.99,,,-99.99,,2013-01-23 03:12:00,
2013-01-22 20:23:00,25.0,24.0,-100.00,North,0,0.0,0.0,97,-99.99,,,-99.99,,2013-01-23 03:23:00,
2013-01-22 20:30:00,25.0,24.0,-100.00,North,0,0.0,0.0,97,-99.99,,,-99.99,,2013-01-23 03:30:00,
2013-01-22 21:12:00,25.0,24.0,-100.00,North,0,0.0,0.0,97,-99.99,,,-99.99,,2013-01-23 04:12:00,
2013-01-22 21:22:00,25.0,24.0,-100.00,North,0,0.0,0.0,97,-99.99,,,-99.99,,2013-01-23 04:22:00,
2013-01-22 23:30:00,26.0,25.0,-100.00,West,264,0.0,0.0,96,-99.99,,,-99.99,,2013-01-23 06:30:00,